Location: Innerarity Island Observatory
(30.3139°N, 87.4867°W)
Time: 13:34:56
(UTC-05:00)

Amateur Radio Satellites - All Passes

Search period start: 27 July 2017 13:04
Search period end: 28 July 2017 13:04
Location: Innerarity Island Observatory, 30.3139°N, 87.4867°W

Satellite Date Start Highest point End Downlink Frequencies (MHz)
Time Altitude Azimuth
EO-79 27 Jul 13:05:36 13:08:10 16° 265° (W) 13:10:45 145.935-145.965
PCSat 27 Jul 13:06:43 13:09:49 15° 54° (NE) 13:12:54 145.827
50 SAT 27 Jul 13:10:09 13:12:48 21° 97° (E) 13:15:25 437.505
DX 1 27 Jul 13:17:17 13:20:31 20° 96° (E) 13:23:44 434.975-435.025
VELOX 1 27 Jul 13:19:22 13:23:50 87° 106° (ESE) 13:28:16 145.980
AO-7 27 Jul 13:31:54 13:33:13 10° 53° (NE) 13:34:31 .
BEESAT 2 27 Jul 13:36:15 13:38:55 17° 305° (NW) 13:41:38 435.950
SPROUT 27 Jul 13:50:43 13:54:25 29° 287° (WNW) 13:58:05 437.525
UKube-1 27 Jul 13:53:45 13:57:43 35° 99° (E) 14:01:40 .
Oscar 19 27 Jul 13:54:10 13:59:13 67° 258° (WSW) 14:04:19 437.125/150
RS-15 27 Jul 14:02:58 14:13:05 33° 104° (ESE) 14:23:23 29.354- 29.394
ITAMSAT 1 27 Jul 14:16:33 14:17:49 11° 64° (ENE) 14:19:07 435.822/435.867
Gurwin Techsat 1B 27 Jul 14:41:57 14:46:47 36° 261° (W) 14:51:39 435.225
50 SAT 27 Jul 14:43:25 14:45:17 14° 289° (WNW) 14:47:08 437.505
O/OREOS (USA 219) 27 Jul 14:47:23 14:51:52 83° 289° (WNW) 14:56:22 437.305
PCSat 27 Jul 14:48:15 14:53:35 61° 249° (WSW) 14:58:52 145.827
DX 1 27 Jul 14:52:58 14:56:36 26° 289° (WNW) 15:00:12 434.975-435.025
BEESAT 27 Jul 14:53:21 14:55:57 15° 95° (E) 14:58:31 436.000
SO-50 27 Jul 15:00:00 15:04:26 49° 60° (ENE) 15:08:53 436.795
ITUPSAT 1 27 Jul 15:07:33 15:11:08 21° 96° (E) 15:14:42 437.325
AO-7 27 Jul 15:16:09 15:24:23 66° 70° (ENE) 15:32:39 .
MOZHAYETS 4 27 Jul 15:29:00 15:32:55 28° 97° (E) 15:36:49
UKube-1 27 Jul 15:30:58 15:33:23 15° 292° (WNW) 15:35:48 .
ITAMSAT 1 27 Jul 15:51:24 15:56:36 71° 258° (WSW) 16:01:50 435.822/435.867
CUBESAT XI-V 27 Jul 16:12:03 16:14:38 15° 94° (E) 16:17:11 437.345
RS-15 27 Jul 16:12:50 16:24:45 62° 301° (WNW) 16:37:01 29.354- 29.394
BEESAT 27 Jul 16:29:21 16:33:48 41° 287° (WNW) 16:38:14 436.000
SO-50 27 Jul 16:42:33 16:44:25 12° 252° (WSW) 16:46:18 436.795
ITUPSAT 1 27 Jul 16:44:48 16:48:52 29° 289° (WNW) 16:52:56 437.325
DOVE 4 27 Jul 16:58:50 17:02:59 29° 71° (ENE) 17:07:20 437.250
MOZHAYETS 4 27 Jul 17:06:30 17:09:50 20° 290° (WNW) 17:13:10
AO-7 27 Jul 17:11:36 17:17:30 21° 264° (W) 17:23:28 .
YUBILEINY 27 Jul 17:20:36 17:26:27 20° 82° (E) 17:32:19 435.215
XW-2B 27 Jul 17:21:16 17:22:53 12° 70° (ENE) 17:24:31 145.730 - 145.750
NO-84 27 Jul 17:22:41 17:25:44 21° 44° (NE) 17:28:55 435.350 FM
KKS-1 27 Jul 17:26:12 17:30:35 54° 101° (E) 17:34:55 437.445
NUDT-PHONESAT 27 Jul 17:34:48 17:36:40 13° 71° (ENE) 17:38:31 437.300
XW-2C 27 Jul 17:37:24 17:40:16 21° 72° (ENE) 17:43:08 145.795 - 145.815
CUBESAT XI-V 27 Jul 17:47:41 17:52:04 40° 286° (WNW) 17:56:27 437.345
STARS 27 Jul 17:48:11 17:52:15 36° 99° (E) 17:56:15 437.465
KAITUO 1B 27 Jul 17:52:10 17:55:11 24° 73° (ENE) 17:58:12 145.475/437.950
CUTE-I 27 Jul 17:59:10 18:04:12 43° 73° (ENE) 18:09:16 437.470
LilacSat-2 27 Jul 18:03:12 18:06:53 53° 76° (ENE) 18:10:34 437.200
nSIGHT-1 27 Jul 18:06:05 18:07:32 12° 126° (SE) 18:08:59 .
XW-2F 27 Jul 18:12:00 18:15:40 63° 77° (ENE) 18:19:21 145.980 - 146.000
RS-15 27 Jul 18:33:20 18:40:26 17° 327° (NNW) 18:47:36 29.354- 29.394
DOVE 4 27 Jul 18:36:42 18:40:33 24° 265° (W) 18:44:35 437.250
Tancredo 1 27 Jul 18:42:50 18:45:40 47° 316° (NW) 18:48:31 437.200
XW-2D 27 Jul 18:43:03 18:46:34 39° 261° (W) 18:50:05 145.860 - 145.880
XW-2B 27 Jul 18:53:27 18:56:45 29° 262° (W) 19:00:03 145.730 - 145.750
NO-84 27 Jul 18:59:33 19:03:14 35° 235° (SW) 19:07:08 435.350 FM
CUTE 1.7 + AOD 2 27 Jul 18:59:41 19:03:29 35° 74° (ENE) 19:07:17 437.475
ISS 27 Jul 19:00:58 19:04:10 63° 132° (SE) 19:07:23 437.550
KKS-1 27 Jul 19:05:42 19:06:35 11° 294° (WNW) 19:07:28 437.445
SEEDS 27 Jul 19:06:41 19:10:06 25° 72° (ENE) 19:13:31 437.485
HO-68 27 Jul 19:06:51 19:13:54 62° 72° (ENE) 19:20:57 435.675
NUDT-PHONESAT 27 Jul 19:07:09 19:10:16 26° 263° (W) 19:13:22 437.300
CUBEBUG 2 27 Jul 19:09:23 19:13:11 25° 72° (ENE) 19:16:55 437.445
XW-2C 27 Jul 19:11:52 19:14:20 17° 264° (W) 19:16:49 145.795 - 145.815
YUBILEINY 27 Jul 19:13:36 19:22:21 67° 277° (W) 19:31:09 435.215
STARS 27 Jul 19:25:44 19:28:12 15° 292° (WNW) 19:30:41 437.465
KAITUO 1B 27 Jul 19:27:07 19:29:07 14° 265° (W) 19:31:08 145.475/437.950
XW-2A 27 Jul 19:38:44 19:42:05 66° 77° (ENE) 19:45:26 145.665 - 145.685
nSIGHT-1 27 Jul 19:40:37 19:43:39 36° 318° (NW) 19:46:40 .
CUTE-I 27 Jul 19:40:47 19:44:19 18° 265° (W) 19:47:54 437.470
AAUSAT CUBESAT 2 27 Jul 19:41:17 19:44:47 28° 73° (ENE) 19:48:18 437.432
JUGNU 27 Jul 19:54:42 19:56:15 11° 160° (SSE) 19:57:49 437.505
UWE-3 27 Jul 20:00:28 20:04:56 55° 76° (ENE) 20:09:20 435.000/436.395/437.385
ZACube-1 27 Jul 20:08:00 20:12:01 34° 74° (ENE) 20:15:58 437.345
STRAND 1 27 Jul 20:08:24 20:13:30 72° 103° (ESE) 20:18:34 437.568
Oscar 11 27 Jul 20:28:46 20:32:45 38° 74° (ENE) 20:36:44 .
AO-85 27 Jul 20:32:43 20:35:42 18° 56° (NE) 20:38:47 145.980
CUTE 1.7 + AOD 2 27 Jul 20:37:23 20:39:22 13° 266° (W) 20:41:21 437.475
ISS 27 Jul 20:39:54 20:40:55 11° 327° (NNW) 20:41:55 437.550
SEEDS 27 Jul 20:42:50 20:45:41 18° 265° (W) 20:48:34 437.485
CUBEBUG 2 27 Jul 20:45:50 20:49:38 24° 263° (W) 20:53:23 437.445
AO-73 27 Jul 20:45:54 20:50:21 89° 256° (WSW) 20:54:42 145.935
HO-68 27 Jul 20:57:06 21:01:54 19° 265° (W) 21:06:44 435.675
FO-29 27 Jul 21:02:38 21:05:57 14° 90° (E) 21:09:05 435.910
BEESAT 3 27 Jul 21:10:57 21:14:43 41° 60° (ENE) 21:18:26 437.485
AAUSAT CUBESAT 2 27 Jul 21:17:43 21:20:12 16° 265° (W) 21:22:43 437.432
EO-88 27 Jul 21:33:44 21:36:51 27° 74° (ENE) 21:39:58 145.990 - 145.960
JUGNU 27 Jul 21:40:08 21:44:41 23° 168° (SSE) 21:49:15 437.505
ZACube-1 27 Jul 21:45:40 21:48:17 15° 265° (W) 21:50:53 437.345
DELFI C3 27 Jul 21:50:42 21:54:36 89° 233° (SW) 21:58:35 145.870
STRAND 1 27 Jul 21:51:38 21:51:59 10° 296° (WNW) 21:52:21 437.568
BEESAT 2 27 Jul 21:57:38 22:01:31 45° 60° (ENE) 22:05:21 435.950
Oscar 11 27 Jul 22:07:05 22:08:57 13° 266° (W) 22:10:50 .
PRISM 27 Jul 22:09:47 22:13:07 23° 97° (E) 22:16:24 437.425
AO-85 27 Jul 22:12:05 22:16:06 36° 247° (WSW) 22:20:24 145.980
TIGRISAT 27 Jul 22:15:28 22:19:16 31° 98° (E) 22:23:02 435.000
FO-29 27 Jul 22:44:58 22:51:39 64° 286° (WNW) 22:57:29 435.910
M-CUBED/EXP-1 PRIME 27 Jul 22:47:35 22:51:24 25° 101° (E) 22:55:09 437.505
SRMSAT 27 Jul 22:49:11 22:51:21 12° 161° (SSE) 22:53:32 437.500
BEESAT 3 27 Jul 22:51:05 22:51:49 10° 253° (WSW) 22:52:33 437.485
LO-87 27 Jul 23:00:49 23:04:17 45° 76° (ENE) 23:07:47 145.935 - 145.965
UNISAT 6 27 Jul 23:08:26 23:12:33 46° 285° (WNW) 23:16:36 437.425
EO-88 27 Jul 23:09:06 23:10:30 12° 266° (W) 23:11:55 145.990 - 145.960
RS-15 27 Jul 23:11:35 23:20:51 24° 42° (NE) 23:29:42 29.354- 29.394
JUGNU 27 Jul 23:28:05 23:33:13 30° 178° (S) 23:38:22 437.505
AIST 2D 27 Jul 23:32:12 23:35:13 27° 98° (E) 23:38:14 435.315
BEESAT 2 27 Jul 23:38:33 23:38:46 10° 253° (WSW) 23:39:01 435.950
ESTCUBE 1 27 Jul 23:38:35 23:43:02 84° 79° (E) 23:47:32 437.505/2401.250
PRISM 27 Jul 23:45:05 23:48:11 21° 289° (WNW) 23:51:17 437.425
TIGRISAT 27 Jul 23:53:08 23:55:39 15° 291° (WNW) 23:58:09 435.000
VELOX 1 28 Jul 00:10:51 00:14:52 36° 73° (ENE) 00:18:56 145.980
M-CUBED/EXP-1 PRIME 28 Jul 00:21:46 00:25:39 26° 293° (WNW) 00:29:29 437.505
DUCHIFAT 1 28 Jul 00:22:40 00:26:34 38° 99° (E) 00:30:25 145.980
POLYITAN 1 28 Jul 00:29:48 00:33:57 64° 101° (E) 00:38:05 437.675
SRMSAT 28 Jul 00:35:20 00:39:57 23° 169° (S) 00:44:35 437.500
SPROUT 28 Jul 00:37:16 00:41:33 86° 256° (WSW) 00:45:53 437.525
BUGSAT 1 28 Jul 00:40:11 00:42:22 14° 95° (E) 00:44:31 437.445
QB50P2 28 Jul 00:43:02 00:47:14 76° 284° (WNW) 00:51:24 145.880/145.840
UKube-1 28 Jul 00:43:51 00:46:18 15° 68° (ENE) 00:48:45 .
NANOSAT C BR1 28 Jul 00:51:50 00:56:00 74° 283° (WNW) 01:00:08 145.865
EO-79 28 Jul 00:53:58 00:58:06 60° 284° (WNW) 01:02:13 145.935-145.965
O/OREOS (USA 219) 28 Jul 01:03:01 01:07:31 72° 70° (ENE) 01:12:01 437.305
AIST 2D 28 Jul 01:06:56 01:08:06 11° 289° (WNW) 01:09:17 435.315
50 SAT 28 Jul 01:07:24 01:10:45 72° 79° (ENE) 01:14:09 437.505
JUGNU 28 Jul 01:16:53 01:21:47 26° 188° (S) 01:26:41 437.505
RS-15 28 Jul 01:22:57 01:34:58 88° 244° (WSW) 01:46:16 29.354- 29.394
Gurwin Techsat 1B 28 Jul 01:26:10 01:28:34 13° 93° (E) 01:30:58 435.225
DX 1 28 Jul 01:41:44 01:46:02 63° 258° (WSW) 01:50:22 434.975-435.025
VELOX 1 28 Jul 01:48:56 01:51:22 15° 265° (W) 01:53:49 145.980
DUCHIFAT 1 28 Jul 02:00:04 02:01:50 12° 292° (WNW) 02:03:35 145.980
ITUPSAT 1 28 Jul 02:09:59 02:12:21 14° 67° (ENE) 02:14:43 437.325
Oscar 19 28 Jul 02:11:22 02:16:33 70° 103° (ESE) 02:21:42 437.125/150
nSIGHT-1 28 Jul 02:13:18 02:15:11 14° 36° (NE) 02:17:04 .
BUGSAT 1 28 Jul 02:14:11 02:17:43 30° 287° (WNW) 02:21:15 437.445
UKube-1 28 Jul 02:18:02 02:21:58 34° 261° (W) 02:25:55 .
SRMSAT 28 Jul 02:23:32 02:28:39 30° 179° (S) 02:33:45 437.500
MOZHAYETS 4 28 Jul 02:26:36 02:29:03 14° 68° (ENE) 02:31:29
Tancredo 1 28 Jul 02:45:40 02:48:36 66° 228° (SW) 02:51:31 437.200
Gurwin Techsat 1B 28 Jul 03:03:33 03:08:45 56° 286° (WNW) 03:13:55 435.225
JUGNU 28 Jul 03:06:55 03:10:15 15° 197° (SSW) 03:13:34 437.505
ISS 28 Jul 03:09:28 03:12:40 56° 44° (NE) 03:15:52 437.550
AO-7 28 Jul 03:25:06 03:32:14 31° 99° (E) 03:39:17 .
BEESAT 28 Jul 03:29:25 03:34:10 71° 258° (WSW) 03:38:56 436.000
RS-15 28 Jul 03:39:20 03:45:33 16° 261° (W) 03:51:39 29.354- 29.394
PCSat 28 Jul 03:40:59 03:46:00 40° 109° (ESE) 03:51:02 145.827
ITUPSAT 1 28 Jul 03:45:06 03:49:42 47° 260° (W) 03:54:20 437.325
nSIGHT-1 28 Jul 03:48:40 03:51:42 39° 230° (SW) 03:54:44 .
Oscar 19 28 Jul 03:54:00 03:55:11 11° 295° (WNW) 03:56:23 437.125/150
MOZHAYETS 4 28 Jul 04:01:29 04:05:48 40° 261° (W) 04:10:06
ITAMSAT 1 28 Jul 04:10:05 04:15:16 67° 102° (ESE) 04:20:23 435.822/435.867
SRMSAT 28 Jul 04:12:34 04:17:20 25° 189° (S) 04:22:07 437.500
KKS-1 28 Jul 04:18:57 04:22:34 25° 71° (ENE) 04:26:12 437.445
STARS 28 Jul 04:40:08 04:42:55 17° 69° (ENE) 04:45:41 437.465
CUBESAT XI-V 28 Jul 04:44:37 04:49:11 82° 257° (WSW) 04:53:48 437.345
DOVE 4 28 Jul 05:05:15 05:07:31 13° 92° (E) 05:09:42 437.250
SO-50 28 Jul 05:08:28 05:12:57 62° 115° (ESE) 05:17:24 436.795
AO-7 28 Jul 05:17:09 05:25:01 48° 293° (WNW) 05:32:51 .
PCSat 28 Jul 05:25:22 05:29:29 22° 304° (WNW) 05:33:36 145.827
YUBILEINY 28 Jul 05:31:13 05:39:35 48° 80° (E) 05:47:50 435.215
ITAMSAT 1 28 Jul 05:52:27 05:54:04 11° 295° (WNW) 05:55:42 435.822/435.867
KKS-1 28 Jul 05:55:30 05:58:59 22° 263° (W) 06:02:30 437.445
SRMSAT 28 Jul 06:02:58 06:05:57 14° 198° (SSW) 06:08:55 437.500
STARS 28 Jul 06:14:56 06:18:55 33° 261° (W) 06:22:56 437.465
XW-2D 28 Jul 06:21:04 06:24:22 29° 98° (E) 06:27:41 145.860 - 145.880
CUTE-I 28 Jul 06:22:23 06:26:55 28° 97° (E) 06:31:23 437.470
XW-2B 28 Jul 06:31:02 06:34:34 38° 99° (E) 06:38:07 145.730 - 145.750
DOVE 4 28 Jul 06:40:26 06:45:28 52° 285° (WNW) 06:50:13 437.250
NUDT-PHONESAT 28 Jul 06:42:23 06:45:52 38° 99° (E) 06:49:19 437.300
HO-68 28 Jul 06:43:31 06:47:11 15° 94° (E) 06:50:49 435.675
XW-2C 28 Jul 06:48:22 06:52:08 72° 101° (E) 06:55:55 145.795 - 145.815
SO-50 28 Jul 06:52:08 06:53:44 12° 310° (NW) 06:55:21 436.795
KAITUO 1B 28 Jul 07:01:45 07:05:29 81° 103° (ESE) 07:09:13 145.475/437.950
LilacSat-2 28 Jul 07:16:00 07:19:34 41° 285° (WNW) 07:23:09 437.200
STRAND 1 28 Jul 07:18:24 07:23:25 56° 74° (ENE) 07:28:27 437.568
XW-2F 28 Jul 07:23:38 07:27:06 36° 285° (WNW) 07:30:34 145.980 - 146.000
YUBILEINY 28 Jul 07:28:46 07:35:52 29° 275° (W) 07:42:58 435.215
XW-2D 28 Jul 07:56:28 07:58:14 13° 290° (WNW) 08:00:01 145.860 - 145.880
UWE-3 28 Jul 07:57:07 07:59:38 16° 95° (E) 08:02:09 435.000/436.395/437.385
CUTE-I 28 Jul 08:02:19 08:06:48 28° 290° (WNW) 08:11:15 437.470
Oscar 11 28 Jul 08:23:52 08:25:07 11° 93° (E) 08:26:21 .
CUTE 1.7 + AOD 2 28 Jul 08:25:19 08:29:26 49° 285° (WNW) 08:33:33 437.475
HO-68 28 Jul 08:28:14 08:35:22 75° 287° (WNW) 08:42:29 435.675
SEEDS 28 Jul 08:30:34 08:34:47 73° 283° (WNW) 08:39:00 437.485
NO-84 28 Jul 08:35:56 08:37:49 16° 122° (ESE) 08:39:44 435.350 FM
XW-2A 28 Jul 08:38:30 08:41:43 45° 284° (WNW) 08:44:54 145.665 - 145.685
AO-73 28 Jul 08:40:04 08:43:27 24° 97° (E) 08:46:51 145.935
CUBEBUG 2 28 Jul 08:41:34 08:45:44 68° 283° (WNW) 08:49:49 437.445
FO-29 28 Jul 08:48:40 08:55:23 35° 68° (ENE) 09:02:17 435.910
STRAND 1 28 Jul 09:00:47 09:02:49 12° 266° (W) 09:04:53 437.568
AAUSAT CUBESAT 2 28 Jul 09:03:25 09:07:34 67° 283° (WNW) 09:11:43 437.432
TIGRISAT 28 Jul 09:09:20 09:12:07 16° 69° (ENE) 09:14:51 435.000
UWE-3 28 Jul 09:32:31 09:36:04 28° 287° (WNW) 09:39:36 435.000/436.395/437.385
DELFI C3 28 Jul 09:34:13 09:36:55 17° 95° (E) 09:39:37 145.870
ZACube-1 28 Jul 09:37:40 09:41:39 47° 285° (WNW) 09:45:38 437.345
Oscar 11 28 Jul 09:57:16 10:01:22 44° 285° (WNW) 10:05:28 .
UNISAT 6 28 Jul 10:00:36 10:05:14 71° 76° (ENE) 10:09:47 437.425
NO-84 28 Jul 10:12:53 10:15:03 19° 317° (NW) 10:17:20 435.350 FM
AO-73 28 Jul 10:16:38 10:19:29 18° 289° (WNW) 10:22:20 145.935
HO-68 28 Jul 10:21:06 10:21:53 10° 302° (WNW) 10:22:40 435.675
PRISM 28 Jul 10:27:19 10:31:21 63° 258° (WSW) 10:35:26 437.425
FO-29 28 Jul 10:33:03 10:40:04 42° 263° (W) 10:47:25 435.910
EO-88 28 Jul 10:40:48 10:44:26 87° 100° (E) 10:48:04 145.990 - 145.960
AO-85 28 Jul 10:42:14 10:45:06 18° 111° (ESE) 10:47:54 145.980
TIGRISAT 28 Jul 10:44:08 10:48:27 38° 261° (W) 10:52:42 435.000
BEESAT 3 28 Jul 10:55:12 10:58:36 28° 111° (ESE) 11:02:02 437.485
M-CUBED/EXP-1 PRIME 28 Jul 11:01:46 11:05:12 44° 257° (WSW) 11:08:56 437.505
DELFI C3 28 Jul 11:08:20 11:11:36 24° 287° (WNW) 11:14:50 145.870
DUCHIFAT 1 28 Jul 11:10:10 11:12:25 14° 69° (ENE) 11:14:39 145.980
POLYITAN 1 28 Jul 11:17:06 11:20:26 22° 71° (ENE) 11:23:46 437.675
QB50P2 28 Jul 11:29:45 11:33:39 36° 74° (ENE) 11:37:33 145.880/145.840
AIST 2D 28 Jul 11:33:09 11:36:37 81° 259° (WSW) 11:40:06 435.315
ESTCUBE 1 28 Jul 11:37:06 11:40:58 27° 97° (E) 11:44:50 437.505/2401.250
NANOSAT C BR1 28 Jul 11:37:59 11:41:53 36° 74° (ENE) 11:45:46 145.865
EO-79 28 Jul 11:40:15 11:44:18 43° 75° (ENE) 11:48:21 145.935-145.965
BEESAT 2 28 Jul 11:43:25 11:46:55 31° 112° (ESE) 11:50:28 435.950
LO-87 28 Jul 12:06:25 12:09:56 58° 283° (WNW) 12:13:25 145.935 - 145.965
VELOX 1 28 Jul 12:09:01 12:10:03 11° 93° (E) 12:11:05 145.980
AO-85 28 Jul 12:21:56 12:25:16 24° 302° (WNW) 12:28:32 145.980
SPROUT 28 Jul 12:29:10 12:32:38 24° 97° (E) 12:36:03 437.525
BEESAT 3 28 Jul 12:33:23 12:36:08 18° 305° (NW) 12:38:55 437.485
PCSat 28 Jul 12:37:35 12:38:41 11° 50° (NE) 12:39:47 145.827
Gurwin Techsat 1B 28 Jul 12:42:20 12:44:36 13° 65° (ENE) 12:46:52 435.225
DUCHIFAT 1 28 Jul 12:43:50 12:47:43 35° 261° (W) 12:51:36 145.980
POLYITAN 1 28 Jul 12:52:45 12:56:04 22° 264° (W) 12:59:22 437.675
